This is the latest recevied weather packets stored in our database for station/object SP2FH-13. If no packets are shown the sender has not sent any weather packets the latest 10 day(s).
| Time | Temp. | Humidity | Pressure | Rain* | Wind** | Luminosity | Snow |
|---|---|---|---|---|---|---|---|
| 1777704455 | 15.56° C | 48% | 1013.5 hPa | - | - | 370 W/m² | - |
| 1777704155 | 15.56° C | 51% | 1013.5 hPa | - | - | 357 W/m² | - |
| 1777703853 | 14.44° C | 52% | 1013.5 hPa | - | - | 343 W/m² | - |
| 1777703552 | 14.44° C | 53% | 1013.5 hPa | - | - | 328 W/m² | - |
| 1777703251 | 13.89° C | 54% | 1013.5 hPa | - | - | 312 W/m² | - |
| 1777702950 | 13.33° C | 56% | 1013.6 hPa | - | - | 297 W/m² | - |
| 1777702649 | 13.33° C | 57% | 1013.5 hPa | - | - | 281 W/m² | - |
| 1777702348 | 12.78° C | 58% | 1013.5 hPa | - | - | 266 W/m² | - |
| 1777702048 | 12.22° C | 60% | 1013.5 hPa | - | - | 249 W/m² | - |
| 1777701746 | 12.22° C | 59% | 1013.5 hPa | - | - | 198 W/m² | - |
| 1777701445 | 11.67° C | 60% | 1013.5 hPa | - | - | 61 W/m² | - |
| 1777701143 | 11.67° C | 61% | 1013.5 hPa | - | - | 69 W/m² | - |
| 1777700842 | 11.11° C | 62% | 1013.4 hPa | - | - | 159 W/m² | - |
| 1777700541 | 11.11° C | 65% | 1013.4 hPa | - | - | 184 W/m² | - |
| 1777700240 | 10.56° C | 66% | 1013.4 hPa | - | - | 169 W/m² | - |
| 1777699939 | 10.56° C | 66% | 1013.4 hPa | - | - | 137 W/m² | - |
| 1777699638 | 10.56° C | 67% | 1013.4 hPa | - | - | 145 W/m² | - |
| 1777699337 | 10° C | 69% | 1013.4 hPa | - | - | 133 W/m² | - |
| 1777699036 | 10.56° C | 68% | 1013.4 hPa | - | - | 119 W/m² | - |
| 1777698734 | 10.56° C | 68% | 1013.4 hPa | - | - | 109 W/m² | - |
| 1777698433 | 10.56° C | 68% | 1013.3 hPa | - | - | 99 W/m² | - |
| 1777698132 | 9.44° C | 68% | 1013.4 hPa | - | - | 88 W/m² | - |
| 1777697832 | 8.89° C | 72% | 1013.3 hPa | - | - | 78 W/m² | - |
| 1777697530 | 8.33° C | 75% | 1013.4 hPa | - | - | 70 W/m² | - |
| 1777697229 | 8.33° C | 75% | 1013.4 hPa | - | - | 64 W/m² | - |
* Rain since midnight (hover to see other rain measurements)
** Current wind speed in m/s (hover to see current wind gust speed)